This is the latest recevied weather packets stored in our database for station/object DG4MND-4. If no packets are shown the sender has not sent any weather packets the latest 10 day(s).
| Time | Temp. | Humidity | Pressure | Rain* | Wind** | Luminosity | Snow |
|---|---|---|---|---|---|---|---|
| 1777846217 | 12.22° C | 71% | 1015.3 hPa | 0 mm | - | - | - |
| 1777845678 | 12.78° C | 70% | 1015.1 hPa | 0 mm | - | - | - |
| 1777845071 | 12.78° C | 71% | 1015 hPa | 0 mm | - | - | - |
| 1777844467 | 12.78° C | 70% | 1015 hPa | 0 mm | - | - | - |
| 1777843864 | 13.33° C | 68% | 1014.8 hPa | 0 mm | - | - | - |
| 1777843260 | 13.89° C | 66% | 1014.9 hPa | 0 mm | - | - | - |
| 1777842660 | 13.89° C | 64% | 1014.8 hPa | 0 mm | - | - | - |
| 1777842053 | 14.44° C | 63% | 1014.7 hPa | 0 mm | - | - | - |
| 1777841453 | 14.44° C | 62% | 1014.6 hPa | 0 mm | - | - | - |
| 1777840852 | 14.44° C | 62% | 1014.5 hPa | 0 mm | - | - | - |
| 1777840247 | 15° C | 62% | 1014.4 hPa | 0 mm | - | - | - |
| 1777839639 | 15° C | 61% | 1014.2 hPa | 0 mm | - | - | - |
| 1777839037 | 15.56° C | 61% | 1014.2 hPa | 0 mm | - | - | - |
| 1777838433 | 16.11° C | 60% | 1013.9 hPa | 0 mm | - | - | - |
| 1777837863 | 16.11° C | 59% | 1013.7 hPa | 0 mm | - | - | - |
| 1777837256 | 16.67° C | 58% | 1013.6 hPa | 0 mm | - | - | - |
| 1777836653 | 17.22° C | 56% | 1013.5 hPa | 0 mm | - | - | - |
| 1777836050 | 17.22° C | 55% | 1013.3 hPa | 0 mm | - | - | - |
| 1777835446 | 17.78° C | 55% | 1013.1 hPa | 0 mm | - | - | - |
| 1777834843 | 18.33° C | 52% | 1013 hPa | 0 mm | - | - | - |
| 1777834239 | 18.33° C | 49% | 1012.8 hPa | 0 mm | - | - | - |
| 1777833638 | 18.33° C | 48% | 1012.7 hPa | 0 mm | - | - | - |
| 1777833032 | 18.33° C | 48% | 1012.4 hPa | 0 mm | - | - | - |
| 1777832429 | 19.44° C | 46% | 1012.2 hPa | 0 mm | - | - | - |
| 1777831825 | 20.56° C | 41% | 1012.1 hPa | 0 mm | - | - | - |
* Rain latest hour (hover to see other rain measurements)
** Current wind speed in m/s (hover to see current wind gust speed)